								Orbital elements:
2012 EF5                                                 Earth MOID = 0.0514 AU
Epoch 2012 Mar. 14.0 TT = JDT 2456000.5                 MPC
M 318.74084              (2000.0)            P               Q
n   0.73066817     Peri.   70.09578     -0.50093308     +0.84132358
a   1.2208321      Node   164.07205     -0.74901386     -0.53898105
e   0.2601360      Incl.   47.73174     +0.43364074     +0.04091530
P   1.35           H   21.3           G... 
							 
							
						 
						
					
				 | 
				
					
						Blobrana
					 | 
				
				
					
						0
					 | 
				
				
				
					
						
					 | 
				
				
					
						
					 | 
				
			
		
			
			
				
				
					
						 
					 | 
				
				
				
					
						
					 | 
				
				
				
					
					
					Asteroid 2012 EM5
					
					
					
					
						
					
					
						
							(Preview)
						
						
						
						
							
						
							
								Orbital elements:
2012 EM5                                                 Earth MOID = 0.0138 AU
Epoch 2012 Mar. 14.0 TT = JDT 2456000.5                 MPC
M  18.54918              (2000.0)            P               Q
n   0.38756171     Peri.  102.51171     -0.11689226     -0.99159334
a   1.8631256      Node   353.39771     +0.61473044     -0.02835894
e   0.6185082      Incl.   28.85510     +0.78002736     -0.12624748
P   2.54           H   25.4           G...                         
							 
							
						 
						
					
				 | 
				
					
						Blobrana
					 | 
				
				
					
						0
					 | 
				
				
				
					
						
					 | 
				
				
					
						
					 | 
				
			
		
			
			
				
				
					
						 
					 | 
				
				
				
					
						
					 | 
				
				
				
					
					
					Asteroid 2012 EJ5
					
					
					
					
						
					
					
						
							(Preview)
						
						
						
						
							
						
							
								Orbital elements:
2012 EJ5                                                 Earth MOID = 0.0112 AU
Epoch 2012 Mar. 14.0 TT = JDT 2456000.5                 MPC
M 358.33750              (2000.0)            P               Q
n   0.54735587     Peri.  139.14012     -0.99892513     -0.04631180
a   1.4800948      Node    38.20559     +0.04166588     -0.91554717
e   0.3197317      Incl.    0.18052     +0.02031095     -0.39953547
P   1.80           H   27.7           G   0...                      
							 
							
						 
						
					
				 | 
				
					
						Blobrana
					 | 
				
				
					
						0
					 | 
				
				
				
					
						
					 | 
				
				
					
						
					 | 
				
			
		
			
			
				
				
					
						 
					 | 
				
				
				
					
						
					 | 
				
				
				
					
					
					Asteroid 2012 EK5
					
					
					
					
						
					
					
						
							(Preview)
						
						
						
						
							
						
							
								Orbital elements:
2012 EK5                                                 Earth MOID = 0.0053 AU
Epoch 2012 Mar. 14.0 TT = JDT 2456000.5                 MPC
M 339.48148              (2000.0)            P               Q
n   0.40351737     Peri.  240.31363     -0.42557856     +0.90481823
a   1.8136823      Node     4.56413     -0.75951742     -0.34894302
e   0.5552568      Incl.    9.89161     -0.49195140     -0.24401383
P   2.44           H   25.6           G   0....                      
							 
							
						 
						
					
				 | 
				
					
						Blobrana
					 | 
				
				
					
						0
					 | 
				
				
				
					
						
					 | 
				
				
					
						
					 | 
				
			
		
			
			
				
				
					
						 
					 | 
				
				
				
					
						
					 | 
				
				
				
					
					
					Asteroid 2012 BK11
					
					
					
					
						
					
					
						
							(Preview)
						
						
						
						
							
						
							
								Orbital elements:
2012 BK11                                                Earth MOID = 0.1547 AU
Epoch 2012 Mar. 14.0 TT = JDT 2456000.5                 MPC
M   3.06005              (2000.0)            P               Q
n   0.39662136     Peri.  256.21545     -0.98268021     -0.18029448
a   1.8346447      Node   273.38488     +0.18223714     -0.89833280
e   0.3777891      Incl.    2.45841     +0.03360392     -0.40061463
P   2.49           H   23.1           G   0... 
							 
							
						 
						
					
				 | 
				
					
						Blobrana
					 | 
				
				
					
						2
					 | 
				
				
				
					
						
					 | 
				
				
					
						
					 |